Regional Weather Roundup
Issued by NWS Little Rock, AR

Home | Current Version | Previous Version | Graphics & Text | Print | Product List | Glossary On
Versions: 1 2 3 4 5 6 7 8 9 10 11 12 13 14 15 16 17 18 19 20 21 22 23 24 25 26 27 28 29 30 31 32 33 34 35 36 37 38 39 40 41 42 43 44 45 46 47 48 49 50
000
ASUS44 KLZK 092205
RWRLZK

WEATHER ROUNDUP FOR ARKANSAS
NATIONAL WEATHER SERVICE LITTLE ROCK AR
500 PM CDT WED JUL 09 2014

NOTE: "FAIR" INDICATES FEW OR NO CLOUDS BELOW 12,000 FEET WITH NO
SIGNIFICANT WEATHER AND/OR OBSTRUCTIONS TO VISIBILITY.

ARZ001-003-010-029-092300-
NORTHWEST ARKANSAS

CITY           SKY/WX    TMP DP  RH WIND       PRES   REMARKS
FAYETTEVILLE   CLOUDY    85  63  47 NE5       30.03F HX  86
FORT SMITH     MOSUNNY   85  69  58 SW7       29.99F HX  89
HARRISON       SUNNY     84  55  36 NW5       30.05F
BENTONVILLE    PTSUNNY   84  61  45 NE6       30.05S
ROGERS         PTSUNNY   84  58  40 NW5       30.05F
SILOAM SPGS    MOSUNNY   84  61  45 N3        30.04F
HIGHFILL       SUNNY     87  60  40 NE6       30.04F HX  87
SPRINGDALE     MOSUNNY   84  63  48 NE8       30.06F HX  85
$$

ARZ004-005-016-092300-
NORTH CENTRAL ARKANSAS

CITY           SKY/WX    TMP DP  RH WIND       PRES   REMARKS
BATESVILLE     MOSUNNY   86  64  48 NW5       29.99F HX  87
FLIPPIN          N/A     86  61  42 N8        30.03S HX  86
MTN HOME       PTSUNNY   81  66  60 CALM      30.02F
$$

ARZ040-041-092300-
WEST CENTRAL ARKANSAS

CITY           SKY/WX    TMP DP  RH WIND       PRES   REMARKS
MENA           PTSUNNY  N/A N/A N/A CALM      30.04F
MOUNT IDA      PTSUNNY   83  71  67 VRB7      30.00F HX  87
$$

ARZ009-017-025-026-028-092300-
NORTHEAST ARKANSAS

CITY           SKY/WX    TMP DP  RH WIND       PRES   REMARKS
CORNING        LGT RAIN  86  64  48 W7        29.99F HX  87
JONESBORO      MOSUNNY   86  64  47 N6        29.98F HX  87
NEWPORT        MOSUNNY   85  69  58 SE5       30.00F HX  89
WALNUT RIDGE   MOSUNNY   86  64  48 NW9       29.98F HX  87
BLYTHEVILLE    MOSUNNY   86  65  49 N8        29.98F HX  88
$$

ARZ022-023-033-042-044-092300-
CENTRAL ARKANSAS

CITY           SKY/WX    TMP DP  RH WIND       PRES   REMARKS
LITTLE ROCK    PTSUNNY   86  66  51 CALM      29.99F HX  88
N LITTLE ROCK  PTSUNNY   84  71  65 N5        29.99F HX  88
JACKSONVILLE   SUNNY     86  69  56 W3        29.99F HX  90
SEARCY         MOSUNNY   86  68  54 CALM      30.00F HX  89
HOT SPRINGS      N/A     85  71  63 VRB3      30.01  HX  90
RUSSELLVILLE   SUNNY     85  69  58 SW3       29.99F HX  89
CLINTON        FAIR      88  68  51 CALM      30.00S HAZE    HX  91
$$

ARZ036-092300-
EAST ARKANSAS

CITY           SKY/WX    TMP DP  RH WIND       PRES   REMARKS
WEST MEMPHIS   MOSUNNY   83  73  72 CALM      29.98S HX  89
$$

ARZ050-053-066-070-073-092300-
SOUTHWEST ARKANSAS

CITY           SKY/WX    TMP DP  RH WIND       PRES   REMARKS
ARKADELPHIA    FAIR      82  74  77 S6        30.02S HX  88
CAMDEN         PTSUNNY   86  64  48 CALM      30.00F HX  87
TEXARKANA      PTSUNNY   83  70  64 NE8       30.00F HX  87
EL DORADO      PTSUNNY   87  71  58 VRB3      30.00F HX  93
DE QUEEN       PTSUNNY   83  72  69 CALM      29.99F HX  88
$$

ARZ056-057-069-092300-
SOUTHEAST ARKANSAS

CITY           SKY/WX    TMP DP  RH WIND       PRES   REMARKS
PINE BLUFF     MOSUNNY   82  70  66 SW8       30.00F HX  86
MONTICELLO     MOSUNNY   83  67  58 W5        30.01F HX  85

$$





USA.gov is the U.S. government's official web portal to all federal, state and local government web resources and services.